Hourly Data Report for January 22, 2017

PORT ALBERNI (AUT)
BRITISH COLUMBIA

49°18'59.700" N
124°55'36.600" W
76.20 m
1036B06
71475
WQC

Download Data

Hourly Data (January 2017)
Hourly Data Report for January 22, 2017
TIME
LST
Temp Definition
°C
Dew Point Definition
°C
Rel Hum Definition
%
Precip. Amount Definition
mm

Wind Dir Definition
10's deg

Wind Spd Definition
km/h
Visibility Definition
km
Stn Press Definition
kPa
Hmdx Definition


Wind Chill Definition


Weather Definition


00:00 3.2 LegendMM LegendMM 0.0 2 3   99.18     LegendNANA
01:00 3.3 LegendMM LegendMM 0.0 26 4   99.13     LegendNANA
02:00 3.0 LegendMM LegendMM 0.0 0 1   99.07     LegendNANA
03:00 2.9 LegendMM LegendMM 0.0 34 2   99.03     LegendNANA
04:00 2.6 LegendMM LegendMM 0.0 29 6   98.96     LegendNANA
05:00 1.5 LegendMM LegendMM 0.0 32 9   98.85     LegendNANA
06:00 2.7 LegendMM LegendMM 0.0 20 12   98.76     LegendNANA
07:00 5.4 LegendMM LegendMM 0.0 10 10   98.69     LegendNANA
08:00 5.3 LegendMM LegendMM 0.0 18 12   98.62     LegendNANA
09:00 3.1 LegendMM LegendMM 0.0 20 7   98.72     LegendNANA
10:00 3.1 LegendMM LegendMM 0.0 20 3   98.81     LegendNANA
11:00 3.7 LegendMM LegendMM 0.0 29 2   98.91     LegendNANA
12:00 4.1 LegendMM LegendMM 0.0 0 1   98.93     LegendNANA
13:00 4.4 LegendMM LegendMM 0.8 29 5   98.94     LegendNANA
14:00 4.7 LegendMM LegendMM 0.1 0 1   99.00     LegendNANA
15:00 5.1 LegendMM LegendMM 0.0 25 3   99.04     LegendNANA
16:00 5.0 LegendMM LegendMM 0.0   0   99.10     LegendNANA
17:00 3.7 LegendMM LegendMM 0.0 27 3   99.14     LegendNANA
18:00 1.7 LegendMM LegendMM 0.1 23 2   99.17     LegendNANA
19:00 1.5 LegendMM LegendMM 0.0 28 3   99.23     LegendNANA
20:00 0.9 LegendMM LegendMM 0.0 29 2   99.27     LegendNANA
21:00 1.7 LegendMM LegendMM 0.0   0   99.32     LegendNANA
22:00 1.5 LegendMM LegendMM 0.0 31 5   99.37     LegendNANA
23:00 1.4 LegendMM LegendMM 0.0 16 3   99.44     LegendNANA

Notes on Data Quality.

Legend

  • E = Estimated
  • M = Missing
  • NA = Not Available*
  • [empty] = Indicates an unobserved value
Date modified: